Weather History for Khon Kaen, Thailand

Change the Weather History Date:

Sunday, August 11, 2013

  Actual Average Record
Temperature  
Mean Temperature 78 °F -  
Max Temperature 82 °F 90 °F - ()
Min Temperature 75 °F 76 °F - ()
Cooling Degree Days 14    
Growing Degree Days 28 (Base 50)    
Moisture  
Dew Point 76 °F    
Average Humidity 93    
Maximum Humidity 100    
Minimum Humidity 78    
Precipitation  
Precipitation 0.08 in 0.28 in - ()
Sea Level Pressure  
Sea Level Pressure 29.78 in    
Wind  
Wind Speed 3 mph ()    
Max Wind Speed 9 mph    
Max Gust Speed -    
Visibility 6.1 miles    
Events Rain    
T = Trace of Precipitation, MM = Missing Value Source: Averaged Metar Reports

Daily Weather History Graph

Daily Weather History Graph

Search for Another Location

Airport:

Trip Planner

Search our weather history database for the weather conditions in past years. The results will help you decide how hot, cold, wet, or windy it might be!

Date:

Astronomy

Aug. 11, 2013 Rise Set
Actual Time 5:51 AM ICT 6:35 PM ICT
Civil Twilight 5:29 AM ICT 6:58 PM ICT
Nautical Twilight 5:02 AM ICT 7:24 PM ICT
Astronomical Twilight 4:36 AM ICT 7:51 PM ICT
Moon 9:18 AM ICT (8/11) 9:25 PM ICT (8/11)
Length of Visible Light 13h 29m
Length of Day
12h 44m
Waxing Crescent, 18% of the Moon is Illuminated
Aug 11
Waxing Crescent
Aug 14
First Quarter
Aug 21
Full
Aug 28
Last Quarter
Sep 5
New

Hourly Weather History & Observations

Time (ICT) Temp. Heat Index Dew Point Humidity Pressure Visibility Wind Dir Wind Speed Gust Speed Precip Events Conditions
12:00 AM 78.8 °F - 78.8 °F 100% 29.80 in 6.2 mi NW 2.3 mph - N/A   Mostly Cloudy
1:00 AM 79 °F - 77 °F 90% 29.78 in 6 mi WNW 2.3 mph - -   Partly Cloudy
1:00 AM 77.0 °F - 77.0 °F 100% 29.80 in 6.2 mi NW 3.5 mph - N/A   Scattered Clouds
2:00 AM 77.0 °F - 77.0 °F 100% 29.77 in 6.2 mi West 2.3 mph - N/A   Scattered Clouds
3:00 AM 77.0 °F - 77.0 °F 100% 29.80 in 6.2 mi SSW 2.3 mph - N/A   Scattered Clouds
4:00 AM 77.0 °F - 77.0 °F 100% 29.77 in 6.2 mi West 4.6 mph - N/A   Overcast
5:00 AM 77.0 °F - 77.0 °F 100% 29.77 in 6.2 mi WNW 4.6 mph - N/A   Mostly Cloudy
6:00 AM 77.0 °F - 77.0 °F 100% 29.77 in 5.0 mi WNW 4.6 mph - N/A   Mostly Cloudy
7:00 AM 76 °F - 75 °F 94% 29.77 in 6 mi NNW 2.3 mph - -   Overcast
7:00 AM 75.2 °F - 75.2 °F 100% 29.77 in 6.2 mi North 4.6 mph - N/A   Overcast
8:00 AM 77.0 °F - 75.2 °F 94% 29.80 in 6.2 mi NNE 4.6 mph - N/A   Overcast
9:00 AM 77.0 °F - 75.2 °F 94% 29.83 in 5.6 mi Calm Calm - N/A Rain Rain
10:00 AM 77.0 °F - 77.0 °F 100% 29.83 in 6.2 mi NNE 4.6 mph - N/A Rain Rain
11:00 AM 78.8 °F - 77.0 °F 94% 29.83 in 6.2 mi NNE 5.8 mph - N/A   Mostly Cloudy
12:00 PM 78.8 °F - 77.0 °F 94% 29.83 in 6.2 mi ENE 5.8 mph - N/A   Mostly Cloudy
1:00 PM 81 °F - 76 °F 80% 29.80 in 6 mi NE 4.6 mph - -   Partly Cloudy
1:00 PM 80.6 °F 87.1 °F 77.0 °F 89% 29.80 in 6.2 mi NE 9.2 mph - N/A   Mostly Cloudy
2:00 PM 82.4 °F 90.9 °F 77.0 °F 84% 29.77 in 6.2 mi NNE 6.9 mph - N/A   Mostly Cloudy
3:00 PM 82.4 °F 90.9 °F 77.0 °F 84% 29.74 in 6.2 mi North 9.2 mph - N/A   Mostly Cloudy
4:00 PM 82.4 °F 89.5 °F 75.2 °F 79% 29.74 in 6.2 mi North 9.2 mph - N/A   Mostly Cloudy
7:00 PM 79 °F - 73 °F 78% 29.73 in 6 mi North 2.3 mph - -   Partly Cloudy
7:00 PM 78.8 °F - 75.2 °F 89% 29.74 in 6.2 mi NNE 4.6 mph - N/A   Mostly Cloudy
8:00 PM 77.0 °F - 75.2 °F 94% 29.74 in 6.2 mi Variable 2.3 mph - N/A   Mostly Cloudy
9:00 PM 77.0 °F - 75.2 °F 94% 29.77 in 6.2 mi Calm Calm - N/A   Scattered Clouds